Notice: Undefined offset: 173 in /var/www/vhosts/pa0isk.nl/httpdocs/pwsWD/w34_livedata.php on line 151

Notice: Undefined index: name in /var/www/vhosts/pa0isk.nl/httpdocs/pwsWD/metar_load_funct.php on line 61

Notice: Undefined index: humidity_percent in /var/www/vhosts/pa0isk.nl/httpdocs/pwsWD/metar_load_funct.php on line 103
Weather34 Metar Aviation Weather Data Popup
14°C Temp
'.PHP_EOL;
8°C Dauwpunt
% Vochtigheid
Temperatuur
39 KM/H
24 MPH
21 KTS
200°
Zuid Zuid
West

Wind Snelheid
Wat bewolking
Luchtdruk 999.92 (hPa)- 29.53 (in)
Zicht 6.2 (mi) - 10 (km)

Huidig weer
EHRD
Locatie 10(km)
Metar:
EHRD 180925Z AUTO 20021G33KT 170V230 9999 FEW020CB 14/08 Q1000 NOSIG

Notice: Undefined offset: 1 in /var/www/vhosts/pa0isk.nl/httpdocs/pwsWD/metar_popup.php on line 285

Notice: Undefined offset: 1 in /var/www/vhosts/pa0isk.nl/httpdocs/pwsWD/metar_popup.php on line 287

Warning: gmmktime() expects parameter 1 to be integer, string given in /var/www/vhosts/pa0isk.nl/httpdocs/pwsWD/metar_popup.php on line 288
Thu 1st January 01:00 am

Vliegveld
  Metar Aviation API Data Provided by https://www.checkwx.com/